Regional Weather Roundup
Issued by NWS

Home | Current Version | Previous Version | Graphics & Text | Print | Product List | Glossary On
Versions: 1 2 3 4 5 6 7 8 9 10 11 12 13 14 15 16 17 18 19 20 21 22 23 24 25 26 27 28 29 30 31 32 33 34 35 36 37 38 39 40 41 42 43 44 45 46 47 48 49 50
000
ASUS43 KMPX 250810
RWRMN
WEATHER ROUNDUP FOR MINNESOTA
NATIONAL WEATHER SERVICE TWIN CITIES/CHANHASSEN MN
200 AM CST SAT FEB 25 2017


NOTE: "FAIR" INDICATES FEW OR NO CLOUDS BELOW 12,000 FEET WITH NO
SIGNIFICANT WEATHER AND/OR OBSTRUCTIONS TO VISIBILITY. N/A MEANS
CURRENT SKY AND/OR WEATHER CONDITIONS ARE NOT AVAILABLE.

MNZ060>063-068>070-250900-
   Twin Cities Metro

CITY           SKY/WX    TMP DP  RH WIND       PRES   REMARKS
TWIN CITIES    CLEAR     18   4  54 N24G31    29.90S WCI   0
ST PAUL        CLEAR     18   5  57 NW20      29.91S WCI   2
CRYSTAL        CLEAR     17   3  54 NW18G30   29.90S WCI   1
BLAINE         CLEAR     18   7  62 NW16      29.89F WCI   3
LAKEVILLE      CLEAR     16   7  67 N10G28    29.89S WCI   3
EDEN PRAIRIE   CLEAR     19   5  54 N13G24    29.89S WCI   6
SOUTH ST PAUL  CLEAR     19   5  54 NW12G20   29.89S WCI   6
LAKE ELMO      FAIR      19   9  63 NW15G21   29.88S WCI   5
$$
MNZ001>005-007-008-013>017-022>024-027-028-250900-
   Northwest Minnesota

CITY           SKY/WX    TMP DP  RH WIND       PRES   REMARKS
BEMIDJI        CLEAR      7   2  81 NW10      29.96S WCI  -8
HALLOCK        MOCLDY     9   7  92 CALM      30.02F
ROSEAU         CLEAR      5   1  85 W5        29.99F WCI  -4
WARROAD        CLEAR      3   0  85 W3        29.98F
THIEF RVR FALL CLEAR      9   6  88 NW3       30.02F
CROOKSTON      CLEAR     14  10  85 NW5       30.05F WCI   6
FOSSTON        CLEAR      9   5  85 NW8       30.00F WCI  -4
DETROIT LAKES  CLEAR     14   9  79 NW12      30.01S WCI   0
MOORHEAD       CLEAR     16  12  86 NW5       30.06F WCI   9
PARK RAPIDS    CLEAR     10   0  63 NW10      29.95S WCI  -4
MAHNOMEN       FAIR      12   7  81 NW7       30.00F WCI   1
$$
MNZ006-009>011-018-025>026-250900-
   North Central Minnesota

CITY           SKY/WX    TMP DP  RH WIND       PRES   REMARKS
BAUDETTE       CLEAR      5  -1  76 W8        29.96F WCI  -8
FLAG ISLAND    CLEAR      5   0  78 W12       29.97F WCI -11
INTL FALLS     CLEAR      4  -1  80 NW8       29.92F WCI  -9
WASKISH        CLEAR      7   1  78 NW7       29.96F WCI  -5
BIG FORK       CLEAR      7   1  78 NW3       29.92S
LONGVILLE      CLEAR      9   1  72 NW7       29.94S WCI  -3
GRAND RAPIDS   CLEAR      7   2  80 NW15      29.91F WCI -10
CRANE LAKE     CLEAR      7   1  78 N5        29.91S WCI  -2
ORR            CLEAR      5   0  78 CALM      29.86S
COOK           PTCLDY     7   1  78 W7        29.87F WCI  -5
WALKER         FAIR       8   1  72 NW12      29.95S WCI  -7
$$
MNZ012-019>021-037-250900-
   Northeast Minnesota

CITY           SKY/WX    TMP DP  RH WIND       PRES   REMARKS
DULUTH         PTCLDY    11   4  73 NW13      29.78F WCI  -4
ELY            CLOUDY     9   1  72 N9G18     29.80F WCI  -5
HIBBING        CLEAR      7   1  76 NW16      29.86S WCI -11
EVELETH        CLEAR     12   0  57 NW13      29.85F WCI  -3
DULUTH HARBOR  CLEAR     18   7  62 NW17      29.86F WCI   2
TWO HARBORS    CLEAR     12   5  73 NW8       29.77F WCI   1
SILVER BAY     CLOUDY    12   3  67 NW10G16   29.75F WCI  -1
GRAND MARAIS     N/A     15   4  61 N9G21     29.73F WCI   3
G MARAIS ARPRT FLURRIES   7   0  72 NW10G22   29.66F WCI  -8
$$
MNZ029>031-032-039>041-046>048-054>057-064-250900-
   West Central Minnesota

CITY           SKY/WX    TMP DP  RH WIND       PRES   REMARKS
FERGUS FALLS   CLEAR     16   9  73 N10G18    30.08S WCI   3
WHEATON        CLEAR     16  12  86 W7        30.07F WCI   6
MORRIS         CLEAR     16   9  73 NW15      30.02S WCI   1
ALEXANDRIA     CLEAR     14   5  67 NW13G22   29.97F WCI   0
ELBOW LAKE     FAIR      15   8  73 NW13      30.02F WCI   1
WADENA         CLEAR     10   5  79 NW8       29.96F WCI  -1
GLENWOOD       CLEAR     14   7  73 NW14G21   29.98S WCI  -1
APPLETON       CLEAR     18  10  73 NW12      30.04F WCI   5
BENSON         CLEAR     18   5  57 N20       30.03S WCI   1
ORTONVILLE       N/A     16  12  86 NW10      30.05S WCI   3
MADISON        CLEAR     19  14  79 NW13      30.06S WCI   7
WILLMAR        FAIR      18  10  73 NW17      29.99S WCI   2
$$
MNZ033>034-036-042>043-049>051-058-059-250900-
   Central Minnesota

CITY           SKY/WX    TMP DP  RH WIND       PRES   REMARKS
ST CLOUD       CLEAR     15   7  70 N15G21    29.94R WCI   0
SAUK CENTRE    FAIR      14   5  66 NW14      29.96F WCI  -1
PAYNESVILLE    CLEAR     16   8  71 NW12G17   29.96S WCI   3
AITKIN         CLEAR     14   3  62 NW9G18    29.90S WCI   2
PINE RIVER     CLEAR     10   3  72 NW8       29.97S WCI  -1
BRAINERD       CLEAR     12   4  70 NW16      29.94S WCI  -5
STAPLES        CLEAR     10   3  72 NW14      29.95F WCI  -5
LONG PRAIRIE   FAIR      14   5  67 W14       29.95S WCI  -1
LITTLE FALLS   CLEAR     14   5  67 NW5       29.96R WCI   6
LITCHFIELD     CLEAR     18  10  73 NW14G21   29.96R WCI   4
BUFFALO        CLEAR     17   8  66 NW13G18   29.94S WCI   4
MAPLE LAKE     CLEAR     18  10  71 NW13G18   29.94S WCI   4
HUTCHINSON     PTCLDY    19  11  71 NW18G24   29.95S WCI   3
$$
MNZ037-044-045-052-053-250900-
   East Central Minnesota

CITY           SKY/WX    TMP DP  RH WIND       PRES   REMARKS
PRINCETON      CLEAR     18   7  62 NW14G22   29.92S WCI   4
MORA           CLEAR     14   3  62 NW16G25   29.91S WCI  -2
CAMBRIDGE      CLEAR     18   5  57 NW9G16    29.89S WCI   6
RUSH CITY      CLEAR     14   3  62 NW12G21   29.89S WCI   0
MOOSE LAKE     CLEAR     12   3  67 NW13G21   29.85F WCI  -3
HINCKLEY       FAIR      16   5  62 NW13G22   29.87F WCI   2
CLOQUET        CLEAR     10   1  67 NW13G18   29.82F WCI  -5
MCGREGOR       CLEAR     12   5  73 NW13G18   29.89F WCI  -3
$$
MNZ071>073-080-081-089-090-097-098-250900-
   Southwest Minnesota

CITY           SKY/WX    TMP DP  RH WIND       PRES   REMARKS
MONTEVIDEO     CLEAR     18   9  68 N16G24    30.04S WCI   3
GRANITE FALLS  CLEAR     19  10  67 NW20      30.03S WCI   3
CANBY          CLEAR     19  16  88 W12       30.06S WCI   6
MARSHALL       CLEAR     17  10  74 NW18      30.03R WCI   1
REDWOOD FALLS  CLEAR     18   7  62 NW13G25   30.00R WCI   5
OLIVIA         CLEAR     18  10  73 NW15G22   29.98S WCI   3
PIPESTONE      CLEAR     18  10  73 N18       30.01S WCI   2
WINDOM         CLEAR     16   9  73 NW20G30   29.97R WCI  -1
WORTHINGTON    CLEAR     15  10  80 NW21      29.99S WCI  -2
JACKSON        PTCLDY    16  10  79 NW21G30   29.96S WCI  -2
TRACY          CLEAR     18  11  74 NW21      30.01R WCI   2
SLAYTON        CLEAR     16  11  80 NW20G28   29.99S WCI   0
$$
MNZ065>067-074>077-082>085-091>093-250900-
   South Central Minnesota

CITY           SKY/WX    TMP DP  RH WIND       PRES   REMARKS
MANKATO          N/A     18   9  68 NW15      29.93R WCI   4
NEW ULM        CLEAR     18  10  73 NW20      29.95R WCI   1
ST JAMES       CLEAR     16  10  79 NW22      29.97S WCI  -2
FAIRMONT       CLEAR     16  11  80 NW15      29.95S WCI   1
GLENCOE        CLEAR     19  11  71 NW16G22   29.93S WCI   5
FARIBAULT      CLEAR     18   7  62 NW13G21   29.89R WCI   4
OWATONNA       CLEAR     12   5  73 NW14      29.87S WCI  -3
WASECA         PTCLDY    18  10  73 NW18      29.91R WCI   2
ALBERT LEA     CLOUDY    18  10  73 NW12G18   29.87S WCI   5
$$
MNZ078>079-086>088-094>096-250900-
   Southeast Minnesota

CITY           SKY/WX    TMP DP  RH WIND       PRES   REMARKS
ROCHESTER      CLOUDY    17  10  74 NW21      29.81F WCI   0
RED WING       PTCLDY    19   7  58 NW7       29.85S WCI  10
STANTON        PTCLDY    18   6  58 NW16G22   29.87R WCI   3
AUSTIN         CLEAR     16   7  67 NW14      29.85S WCI   1
PRESTON        CLOUDY    16   9  74 NW10      29.81S WCI   4
$$
ABBREVIATIONS USED IN REMARKS
   TC - TEMPERATURES IN CELSIUS
  WCI - WIND CHILL INDEX
   HX - HEAT INDEX
  VSB - VISIBILITY
$$



USA.gov is the U.S. government's official web portal to all federal, state and local government web resources and services.